CW0005 Weather Reports


time (UTC)temp
F
wind
direction
speed
knots
gust
knots
rain 1hr
in
rain 24hr
in
rain mn
in
humidity
%
barometer
mb
20260504184514 84 206 1.7 7.0 0.00 0.00 0.00 29 1000.8
20260504183020 83 244 0.9 8.7 0.00 0.00 0.00 31 1000.7
20260504181508 83 257 0.9 10.4 0.00 0.00 0.00 29 1000.9
20260504180009 83 201 1.7 5.2 0.00 0.00 0.00 28 1000.8
20260504174512 82 321 1.7 5.2 0.00 0.00 0.00 29 1000.8
20260504173022 81 251 1.7 7.8 0.00 0.00 0.00 30 1000.9
20260504171518 80 53 0.9 7.0 0.00 0.00 0.00 32 1000.9
20260504081517 48 13 0.0 0.0 0.00 0.00 0.00 70 1004.6
20260504050016 53 13 0.0 0.0 0.00 0.00 0.00 54 1007.1
20260504044535 53 13 0.0 0.0 0.00 0.00 0.00 53 1007.1
20260504043028 54 13 0.0 0.0 0.00 0.00 0.00 51 1007.2
20260504041506 55 13 0.0 0.0 0.00 0.00 0.00 50 1007.3
20260504040008 55 13 0.0 0.0 0.00 0.00 0.00 49 1007.5
20260504034520 56 13 0.0 0.0 0.00 0.00 0.00 48 1007.7
20260504033013 57 13 0.0 0.0 0.00 0.00 0.00 45 1008.0
20260504031504 58 13 0.0 0.0 0.00 0.00 0.00 44 1008.1
20260504030010 59 13 0.0 0.0 0.00 0.00 0.00 42 1008.2
20260504024505 59 13 0.0 0.0 0.00 0.00 0.00 40 1008.2
20260504023017 60 13 0.0 0.0 0.00 0.00 0.00 37 1008.2
20260504021515 61 13 0.0 0.0 0.00 0.00 0.00 35 1008.1
20260504020013 63 13 0.0 0.0 0.00 0.00 0.00 33 1008.0
20260504014514 65 13 0.0 0.0 0.00 0.00 0.00 31 1007.9
20260504013027 67 13 0.0 0.0 0.00 0.00 0.00 28 1008.0
20260504011509 68 13 0.0 0.0 0.00 0.00 0.00 26 1008.0
20260504010014 69 13 0.0 0.0 0.00 0.00 0.00 25 1008.0
20260504004511 70 13 0.0 0.0 0.00 0.00 0.00 25 1008.0
20260504003013 71 13 0.0 0.0 0.00 0.00 0.00 23 1008.1
20260504001512 71 13 0.0 0.0 0.00 0.00 0.00 24 1008.1
20260504000007 72 13 0.9 3.5 0.00 0.00 0.00 22 1008.0
20260503234514 72 13 1.7 7.0 0.00 0.00 0.00 21 1008.1
20260503233008 73 13 0.0 2.6 0.00 0.00 0.00 21 1008.2
20260503231512 73 13 0.9 5.2 0.00 0.00 0.00 21 1008.2
20260503230013 74 13 0.9 7.8 0.00 0.00 0.00 21 1008.2
20260503224512 74 13 0.9 3.5 0.00 0.00 0.00 23 1008.3
20260503223015 74 13 0.9 7.0 0.00 0.00 0.00 24 1008.3
20260503221522 74 13 0.0 8.7 0.00 0.00 0.00 25 1008.3
20260503220015 75 13 2.6 9.6 0.00 0.00 0.00 23 1008.5
20260503214510 76 13 0.9 4.3 0.00 0.00 0.00 23 1008.5
20260503213026 77 13 1.7 5.2 0.00 0.00 0.00 22 1008.3
20260503211518 77 13 0.9 7.0 0.00 0.00 0.00 24 1008.3
20260503210014 78 13 1.7 7.0 0.00 0.00 0.00 23 1008.5
20260503204525 78 13 0.9 7.0 0.00 0.00 0.00 24 1008.6
20260503203020 78 13 0.9 7.8 0.00 0.00 0.00 25 1008.6
20260503201530 77 13 1.7 8.7 0.00 0.00 0.00 25 1008.8
20260503200031 77 13 0.9 9.6 0.00 0.00 0.00 25 1008.8
20260503194523 77 13 0.9 9.6 0.00 0.00 0.00 26 1008.8
20260503193022 76 13 0.9 7.8 0.00 0.00 0.00 27 1008.9
20260503191521 75 13 0.9 10.4 0.00 0.00 0.00 28 1009.0
20260503190025 74 13 0.9 5.2 0.00 0.00 0.00 29 1009.1